Time,TemperatureF,DewpointF,PressureIn,WindDirection,WindDirectionDegrees,WindSpeedMPH,WindSpeedGustMPH,Humidity,HourlyPrecipIn,Conditions,Clouds,dailyrainin,SoftwareType,DateUTC
2013-07-28 00:02:00,60.8,0.0,29.88,West,259,4.0,16.0,0,0.00,,,0.00,Weather View 32 v70,2013-07-28 07:02:00,
2013-07-28 00:07:00,60.9,0.0,29.88,SSW,193,3.0,16.0,0,0.00,,,0.00,Weather View 32 v70,2013-07-28 07:07:00,
2013-07-28 00:12:00,61.0,0.0,29.88,SW,225,8.0,16.0,0,0.00,,,0.00,Weather View 32 v70,2013-07-28 07:12:00,
2013-07-28 00:17:00,60.6,0.0,29.88,SW,219,6.0,16.0,0,0.00,,,0.00,Weather View 32 v70,2013-07-28 07:17:00,
2013-07-28 00:22:00,60.5,0.0,29.88,NNE,15,4.0,16.0,0,0.00,,,0.00,Weather View 32 v70,2013-07-28 07:22:00,
2013-07-28 00:27:00,60.2,0.0,29.88,SSW,208,3.0,16.0,0,0.00,,,0.00,Weather View 32 v70,2013-07-28 07:27:00,
2013-07-28 00:32:00,60.3,0.0,29.88,South,191,3.0,16.0,0,0.00,,,0.00,Weather View 32 v70,2013-07-28 07:32:00,
2013-07-28 00:37:00,60.4,0.0,29.88,SW,229,13.0,16.0,0,0.00,,,0.00,Weather View 32 v70,2013-07-28 07:37:00,
2013-07-28 00:42:00,60.3,0.0,29.88,SSW,212,5.0,16.0,0,0.00,,,0.00,Weather View 32 v70,2013-07-28 07:42:00,
2013-07-28 00:47:00,60.1,0.0,29.88,SSW,193,2.0,15.0,0,0.00,,,0.00,Weather View 32 v70,2013-07-28 07:47:00,
2013-07-28 00:52:00,60.5,0.0,29.88,SSW,210,6.0,15.0,0,0.00,,,0.00,Weather View 32 v70,2013-07-28 07:52:00,
2013-07-28 00:57:00,60.5,0.0,29.88,WSW,249,5.0,15.0,0,0.00,,,0.00,Weather View 32 v70,2013-07-28 07:57:00,
2013-07-28 01:02:00,60.7,0.0,29.88,WSW,248,7.0,15.0,0,0.00,,,0.00,Weather View 32 v70,2013-07-28 08:02:00,
2013-07-28 01:07:00,60.4,0.0,29.88,SW,219,5.0,15.0,0,0.00,,,0.00,Weather View 32 v70,2013-07-28 08:07:00,
2013-07-28 01:12:00,60.4,0.0,29.88,SW,219,10.0,17.0,0,0.00,,,0.00,Weather View 32 v70,2013-07-28 08:12:00,
2013-07-28 01:17:00,60.7,0.0,29.87,West,259,6.0,17.0,0,0.00,,,0.00,Weather View 32 v70,2013-07-28 08:17:00,
2013-07-28 01:22:00,60.4,0.0,29.88,SW,236,4.0,17.0,0,0.00,,,0.00,Weather View 32 v70,2013-07-28 08:22:00,
2013-07-28 01:27:00,60.0,0.0,29.88,WNW,290,5.0,17.0,0,0.00,,,0.00,Weather View 32 v70,2013-07-28 08:27:00,
2013-07-28 01:32:00,59.7,0.0,29.87,West,259,6.0,17.0,0,0.00,,,0.00,Weather View 32 v70,2013-07-28 08:32:00,
2013-07-28 01:37:00,59.6,0.0,29.87,West,270,6.0,17.0,0,0.00,,,0.00,Weather View 32 v70,2013-07-28 08:37:00,
2013-07-28 01:42:00,59.5,0.0,29.87,SW,236,12.0,17.0,0,0.00,,,0.00,Weather View 32 v70,2013-07-28 08:42:00,
2013-07-28 01:47:00,59.4,0.0,29.87,SSW,198,5.0,17.0,0,0.00,,,0.00,Weather View 32 v70,2013-07-28 08:47:00,
2013-07-28 01:52:00,59.4,0.0,29.87,WSW,248,7.0,17.0,0,0.00,,,0.00,Weather View 32 v70,2013-07-28 08:52:00,
2013-07-28 01:57:00,59.5,0.0,29.87,SW,225,8.0,17.0,0,0.00,,,0.00,Weather View 32 v70,2013-07-28 08:57:00,
2013-07-28 02:02:00,59.5,0.0,29.87,WSW,249,9.0,17.0,0,0.00,,,0.00,Weather View 32 v70,2013-07-28 09:02:00,
2013-07-28 02:07:00,59.4,0.0,29.87,SW,217,8.0,17.0,0,0.00,,,0.00,Weather View 32 v70,2013-07-28 09:07:00,
2013-07-28 02:12:00,59.4,0.0,29.87,West,273,7.0,15.0,0,0.00,,,0.00,Weather View 32 v70,2013-07-28 09:12:00,
2013-07-28 02:17:00,59.4,0.0,29.87,West,267,5.0,15.0,0,0.00,,,0.00,Weather View 32 v70,2013-07-28 09:17:00,
2013-07-28 02:22:00,59.1,0.0,29.87,WSW,238,7.0,15.0,0,0.00,,,0.00,Weather View 32 v70,2013-07-28 09:22:00,
2013-07-28 02:27:00,58.9,0.0,29.87,West,276,5.0,15.0,0,0.00,,,0.00,Weather View 32 v70,2013-07-28 09:27:00,
2013-07-28 02:32:00,59.2,0.0,29.87,SW,233,6.0,15.0,0,0.00,,,0.00,Weather View 32 v70,2013-07-28 09:32:00,
2013-07-28 02:37:00,58.6,0.0,29.86,WSW,257,11.0,18.0,0,0.00,,,0.00,Weather View 32 v70,2013-07-28 09:37:00,
2013-07-28 02:42:00,58.9,0.0,29.86,WSW,239,8.0,18.0,0,0.00,,,0.00,Weather View 32 v70,2013-07-28 09:42:00,
2013-07-28 02:47:00,58.8,0.0,29.86,SSW,204,10.0,18.0,0,0.00,,,0.00,Weather View 32 v70,2013-07-28 09:47:00,
2013-07-28 02:52:00,58.6,0.0,29.86,West,269,6.0,18.0,0,0.00,,,0.00,Weather View 32 v70,2013-07-28 09:52:00,
2013-07-28 02:57:00,58.9,0.0,29.86,WSW,246,8.0,18.0,0,0.00,,,0.00,Weather View 32 v70,2013-07-28 09:57:00,
2013-07-28 03:02:00,58.6,0.0,29.86,WSW,248,8.0,18.0,0,0.00,,,0.00,Weather View 32 v70,2013-07-28 10:02:00,
2013-07-28 03:07:00,58.6,0.0,29.86,SW,219,5.0,18.0,0,0.00,,,0.00,Weather View 32 v70,2013-07-28 10:07:00,
2013-07-28 03:12:00,58.4,0.0,29.86,SW,232,3.0,18.0,0,0.00,,,0.00,Weather View 32 v70,2013-07-28 10:12:00,
2013-07-28 03:17:00,58.3,0.0,29.86,West,264,6.0,18.0,0,0.00,,,0.00,Weather View 32 v70,2013-07-28 10:17:00,
2013-07-28 03:22:00,58.4,0.0,29.86,WSW,245,6.0,18.0,0,0.00,,,0.00,Weather View 32 v70,2013-07-28 10:22:00,
2013-07-28 03:27:00,58.0,0.0,29.86,WSW,245,5.0,18.0,0,0.00,,,0.00,Weather View 32 v70,2013-07-28 10:27:00,
2013-07-28 03:32:00,58.7,0.0,29.86,WSW,242,6.0,18.0,0,0.00,,,0.00,Weather View 32 v70,2013-07-28 10:32:00,
2013-07-28 03:37:00,58.3,0.0,29.86,WSW,255,5.0,17.0,0,0.00,,,0.00,Weather View 32 v70,2013-07-28 10:37:00,
2013-07-28 03:42:00,58.2,0.0,29.86,SW,221,9.0,17.0,0,0.00,,,0.00,Weather View 32 v70,2013-07-28 10:42:00,
2013-07-28 03:47:00,58.0,0.0,29.86,WSW,238,4.0,15.0,0,0.00,,,0.00,Weather View 32 v70,2013-07-28 10:47:00,
2013-07-28 03:52:00,58.1,0.0,29.86,West,260,5.0,15.0,0,0.00,,,0.00,Weather View 32 v70,2013-07-28 10:52:00,
2013-07-28 03:57:00,57.9,0.0,29.86,WSW,239,5.0,15.0,0,0.00,,,0.00,Weather View 32 v70,2013-07-28 10:57:00,
2013-07-28 04:02:00,57.8,0.0,29.86,WSW,255,5.0,15.0,0,0.00,,,0.00,Weather View 32 v70,2013-07-28 11:02:00,
2013-07-28 04:07:00,57.4,0.0,29.86,SW,221,7.0,15.0,0,0.00,,,0.00,Weather View 32 v70,2013-07-28 11:07:00,
2013-07-28 04:12:00,57.7,0.0,29.86,WSW,240,3.0,15.0,0,0.00,,,0.00,Weather View 32 v70,2013-07-28 11:12:00,
2013-07-28 04:17:00,57.4,0.0,29.86,SSW,200,4.0,15.0,0,0.00,,,0.00,Weather View 32 v70,2013-07-28 11:17:00,
2013-07-28 04:22:00,57.6,0.0,29.86,SW,229,6.0,15.0,0,0.00,,,0.00,Weather View 32 v70,2013-07-28 11:22:00,
2013-07-28 04:27:00,57.6,0.0,29.86,WSW,243,7.0,15.0,0,0.00,,,0.00,Weather View 32 v70,2013-07-28 11:27:00,
2013-07-28 04:32:00,57.4,0.0,29.86,SSW,210,7.0,15.0,0,0.00,,,0.00,Weather View 32 v70,2013-07-28 11:32:00,
2013-07-28 04:37:00,57.6,0.0,29.87,WSW,257,7.0,14.0,0,0.00,,,0.00,Weather View 32 v70,2013-07-28 11:37:00,
2013-07-28 04:42:00,57.6,0.0,29.86,West,263,6.0,14.0,0,0.00,,,0.00,Weather View 32 v70,2013-07-28 11:42:00,
2013-07-28 04:47:00,57.7,0.0,29.86,SSW,212,4.0,14.0,0,0.00,,,0.00,Weather View 32 v70,2013-07-28 11:47:00,
2013-07-28 04:52:00,57.6,0.0,29.86,West,278,5.0,13.0,0,0.00,,,0.00,Weather View 32 v70,2013-07-28 11:52:00,
2013-07-28 04:57:00,57.4,0.0,29.86,WSW,245,6.0,13.0,0,0.00,,,0.00,Weather View 32 v70,2013-07-28 11:57:00,
2013-07-28 05:02:00,57.4,0.0,29.87,West,269,6.0,13.0,0,0.00,,,0.00,Weather View 32 v70,2013-07-28 12:02:00,
2013-07-28 05:07:00,57.7,0.0,29.87,SSW,203,2.0,13.0,0,0.00,,,0.00,Weather View 32 v70,2013-07-28 12:07:00,
2013-07-28 05:12:00,57.2,0.0,29.87,SW,226,6.0,13.0,0,0.00,,,0.00,Weather View 32 v70,2013-07-28 12:12:00,
2013-07-28 05:17:00,57.4,0.0,29.87,West,274,8.0,13.0,0,0.00,,,0.00,Weather View 32 v70,2013-07-28 12:17:00,
2013-07-28 05:22:00,57.3,0.0,29.87,SSW,194,4.0,13.0,0,0.00,,,0.00,Weather View 32 v70,2013-07-28 12:22:00,
2013-07-28 05:27:00,57.0,0.0,29.87,SW,228,6.0,13.0,0,0.00,,,0.00,Weather View 32 v70,2013-07-28 12:27:00,
2013-07-28 05:32:00,57.3,0.0,29.87,West,277,4.0,13.0,0,0.00,,,0.00,Weather View 32 v70,2013-07-28 12:32:00,
2013-07-28 05:37:00,57.1,0.0,29.87,West,263,9.0,13.0,0,0.00,,,0.00,Weather View 32 v70,2013-07-28 12:37:00,
2013-07-28 05:42:00,57.3,0.0,29.87,West,264,3.0,13.0,0,0.00,,,0.00,Weather View 32 v70,2013-07-28 12:42:00,
2013-07-28 05:47:00,57.6,0.0,29.87,SW,222,4.0,15.0,0,0.00,,,0.00,Weather View 32 v70,2013-07-28 12:47:00,
2013-07-28 05:52:00,57.4,0.0,29.87,WSW,253,5.0,15.0,0,0.00,,,0.00,Weather View 32 v70,2013-07-28 12:52:00,
2013-07-28 05:57:00,57.2,0.0,29.88,WSW,256,2.0,15.0,0,0.00,,,0.00,Weather View 32 v70,2013-07-28 12:57:00,
2013-07-28 06:02:00,57.4,0.0,29.88,SW,221,3.0,15.0,0,0.00,,,0.00,Weather View 32 v70,2013-07-28 13:02:00,
2013-07-28 06:08:00,57.4,0.0,29.88,WSW,246,5.0,15.0,0,0.00,,,0.00,Weather View 32 v70,2013-07-28 13:08:00,
2013-07-28 06:13:00,57.4,0.0,29.88,WNW,291,6.0,15.0,0,0.00,,,0.00,Weather View 32 v70,2013-07-28 13:13:00,
2013-07-28 06:18:00,57.1,0.0,29.88,SW,217,6.0,15.0,0,0.00,,,0.00,Weather View 32 v70,2013-07-28 13:18:00,
2013-07-28 06:23:00,57.4,0.0,29.88,WSW,248,4.0,15.0,0,0.00,,,0.00,Weather View 32 v70,2013-07-28 13:23:00,
2013-07-28 06:28:00,57.4,0.0,29.88,WSW,248,6.0,15.0,0,0.00,,,0.00,Weather View 32 v70,2013-07-28 13:28:00,
2013-07-28 06:33:00,57.4,0.0,29.88,SW,224,2.0,15.0,0,0.00,,,0.00,Weather View 32 v70,2013-07-28 13:33:00,
2013-07-28 06:38:00,57.6,0.0,29.88,WSW,242,6.0,15.0,0,0.00,,,0.00,Weather View 32 v70,2013-07-28 13:38:00,
2013-07-28 06:43:00,57.5,0.0,29.88,SW,229,7.0,15.0,0,0.00,,,0.00,Weather View 32 v70,2013-07-28 13:43:00,
2013-07-28 06:48:00,57.3,0.0,29.89,WSW,250,5.0,13.0,0,0.00,,,0.00,Weather View 32 v70,2013-07-28 13:48:00,
2013-07-28 06:53:00,57.7,0.0,29.89,SW,232,6.0,13.0,0,0.00,,,0.00,Weather View 32 v70,2013-07-28 13:53:00,
2013-07-28 06:58:00,58.0,0.0,29.89,West,262,5.0,13.0,0,0.00,,,0.00,Weather View 32 v70,2013-07-28 13:58:00,
2013-07-28 07:03:00,58.3,0.0,29.88,SW,219,5.0,13.0,0,0.00,,,0.00,Weather View 32 v70,2013-07-28 14:03:00,
2013-07-28 07:08:00,58.5,0.0,29.88,WSW,249,4.0,13.0,0,0.00,,,0.00,Weather View 32 v70,2013-07-28 14:08:00,
2013-07-28 07:13:00,59.0,0.0,29.88,WNW,302,4.0,13.0,0,0.00,,,0.00,Weather View 32 v70,2013-07-28 14:13:00,
2013-07-28 07:18:00,59.1,0.0,29.89,West,267,5.0,13.0,0,0.00,,,0.00,Weather View 32 v70,2013-07-28 14:18:00,
2013-07-28 07:23:00,59.3,0.0,29.89,WSW,249,8.0,14.0,0,0.00,,,0.00,Weather View 32 v70,2013-07-28 14:23:00,
2013-07-28 07:28:00,59.4,0.0,29.89,SW,226,7.0,14.0,0,0.00,,,0.00,Weather View 32 v70,2013-07-28 14:28:00,
2013-07-28 07:33:00,59.4,0.0,29.89,WSW,240,4.0,14.0,0,0.00,,,0.00,Weather View 32 v70,2013-07-28 14:33:00,
2013-07-28 07:38:00,59.4,0.0,29.89,SSW,208,10.0,14.0,0,0.00,,,0.00,Weather View 32 v70,2013-07-28 14:38:00,
2013-07-28 07:43:00,59.9,0.0,29.89,WNW,291,7.0,14.0,0,0.00,,,0.00,Weather View 32 v70,2013-07-28 14:43:00,
2013-07-28 07:48:00,60.1,0.0,29.89,WSW,239,5.0,14.0,0,0.00,,,0.00,Weather View 32 v70,2013-07-28 14:48:00,
2013-07-28 07:53:00,60.4,0.0,29.89,West,266,9.0,14.0,0,0.00,,,0.00,Weather View 32 v70,2013-07-28 14:53:00,
2013-07-28 07:58:00,60.8,0.0,29.89,SSW,193,5.0,15.0,0,0.00,,,0.00,Weather View 32 v70,2013-07-28 14:58:00,
2013-07-28 08:03:00,60.8,0.0,29.90,SW,218,3.0,15.0,0,0.00,,,0.00,Weather View 32 v70,2013-07-28 15:03:00,
2013-07-28 08:08:00,61.4,0.0,29.90,SW,235,2.0,15.0,0,0.00,,,0.00,Weather View 32 v70,2013-07-28 15:08:00,
2013-07-28 08:13:00,61.7,0.0,29.90,SW,215,9.0,15.0,0,0.00,,,0.00,Weather View 32 v70,2013-07-28 15:13:00,
2013-07-28 08:18:00,61.7,0.0,29.90,WNW,290,6.0,15.0,0,0.00,,,0.00,Weather View 32 v70,2013-07-28 15:18:00,
2013-07-28 08:23:00,61.9,0.0,29.90,West,271,3.0,15.0,0,0.00,,,0.00,Weather View 32 v70,2013-07-28 15:23:00,
2013-07-28 08:28:00,62.2,0.0,29.90,WNW,297,6.0,15.0,0,0.00,,,0.00,Weather View 32 v70,2013-07-28 15:28:00,
2013-07-28 08:33:00,62.1,0.0,29.90,West,274,4.0,15.0,0,0.00,,,0.00,Weather View 32 v70,2013-07-28 15:33:00,
2013-07-28 08:38:00,62.3,0.0,29.90,WSW,238,2.0,15.0,0,0.00,,,0.00,Weather View 32 v70,2013-07-28 15:38:00,
2013-07-28 08:43:00,63.0,0.0,29.90,WSW,238,7.0,15.0,0,0.00,,,0.00,Weather View 32 v70,2013-07-28 15:43:00,
2013-07-28 08:48:00,63.1,0.0,29.89,West,264,10.0,15.0,0,0.00,,,0.00,Weather View 32 v70,2013-07-28 15:48:00,
2013-07-28 08:53:00,63.5,0.0,29.90,SW,221,7.0,15.0,0,0.00,,,0.00,Weather View 32 v70,2013-07-28 15:53:00,
2013-07-28 08:58:00,63.5,0.0,29.90,WSW,239,5.0,14.0,0,0.00,,,0.00,Weather View 32 v70,2013-07-28 15:58:00,
2013-07-28 09:03:00,64.2,0.0,29.90,West,281,4.0,14.0,0,0.00,,,0.00,Weather View 32 v70,2013-07-28 16:03:00,
2013-07-28 09:08:00,64.7,0.0,29.90,WSW,253,7.0,14.0,0,0.00,,,0.00,Weather View 32 v70,2013-07-28 16:08:00,
2013-07-28 09:13:00,64.8,0.0,29.89,WSW,238,6.0,14.0,0,0.00,,,0.00,Weather View 32 v70,2013-07-28 16:13:00,
2013-07-28 09:18:00,64.2,0.0,29.89,SSW,198,3.0,14.0,0,0.00,,,0.00,Weather View 32 v70,2013-07-28 16:18:00,
2013-07-28 09:23:00,64.7,0.0,29.89,SW,232,6.0,14.0,0,0.00,,,0.00,Weather View 32 v70,2013-07-28 16:23:00,
2013-07-28 09:28:00,64.8,0.0,29.89,ESE,117,3.0,14.0,0,0.00,,,0.00,Weather View 32 v70,2013-07-28 16:28:00,
2013-07-28 09:33:00,64.9,0.0,29.89,WSW,245,6.0,14.0,0,0.00,,,0.00,Weather View 32 v70,2013-07-28 16:33:00,
2013-07-28 09:38:00,65.1,0.0,29.89,SW,217,5.0,14.0,0,0.00,,,0.00,Weather View 32 v70,2013-07-28 16:38:00,
2013-07-28 09:43:00,65.9,0.0,29.89,SW,218,7.0,16.0,0,0.00,,,0.00,Weather View 32 v70,2013-07-28 16:43:00,
2013-07-28 09:48:00,65.7,0.0,29.89,WNW,291,7.0,16.0,0,0.00,,,0.00,Weather View 32 v70,2013-07-28 16:48:00,
2013-07-28 09:53:00,66.3,0.0,29.89,WSW,243,5.0,16.0,0,0.00,,,0.00,Weather View 32 v70,2013-07-28 16:53:00,
2013-07-28 09:58:00,66.8,0.0,29.89,WNW,285,5.0,16.0,0,0.00,,,0.00,Weather View 32 v70,2013-07-28 16:58:00,
2013-07-28 10:03:00,66.9,0.0,29.89,SW,215,14.0,16.0,0,0.00,,,0.00,Weather View 32 v70,2013-07-28 17:03:00,
2013-07-28 10:08:00,67.0,0.0,29.89,SW,224,7.0,16.0,0,0.00,,,0.00,Weather View 32 v70,2013-07-28 17:08:00,
2013-07-28 10:13:00,67.1,0.0,29.89,SSW,197,3.0,16.0,0,0.00,,,0.00,Weather View 32 v70,2013-07-28 17:13:00,
2013-07-28 10:18:00,67.3,0.0,29.89,SW,226,5.0,16.0,0,0.00,,,0.00,Weather View 32 v70,2013-07-28 17:18:00,
2013-07-28 10:23:00,67.5,0.0,29.89,WSW,256,5.0,16.0,0,0.00,,,0.00,Weather View 32 v70,2013-07-28 17:23:00,
2013-07-28 10:28:00,68.3,0.0,29.89,SW,218,11.0,16.0,0,0.00,,,0.00,Weather View 32 v70,2013-07-28 17:28:00,
2013-07-28 10:33:00,68.9,0.0,29.89,South,186,8.0,16.0,0,0.00,,,0.00,Weather View 32 v70,2013-07-28 17:33:00,
2013-07-28 10:38:00,69.0,0.0,29.88,SSW,198,10.0,16.0,0,0.00,,,0.00,Weather View 32 v70,2013-07-28 17:38:00,
2013-07-28 10:43:00,69.2,0.0,29.89,SW,224,6.0,16.0,0,0.00,,,0.00,Weather View 32 v70,2013-07-28 17:43:00,
2013-07-28 10:48:00,69.3,0.0,29.88,WSW,256,6.0,16.0,0,0.00,,,0.00,Weather View 32 v70,2013-07-28 17:48:00,
2013-07-28 10:53:00,69.3,0.0,29.89,SW,219,2.0,16.0,0,0.00,,,0.00,Weather View 32 v70,2013-07-28 17:53:00,
2013-07-28 10:58:00,69.6,0.0,29.89,ESE,118,1.0,16.0,0,0.00,,,0.00,Weather View 32 v70,2013-07-28 17:58:00,
2013-07-28 11:03:00,69.8,0.0,29.89,SW,235,10.0,16.0,0,0.00,,,0.00,Weather View 32 v70,2013-07-28 18:03:00,
2013-07-28 11:08:00,70.2,0.0,29.88,SW,226,9.0,16.0,0,0.00,,,0.00,Weather View 32 v70,2013-07-28 18:08:00,
2013-07-28 11:13:00,70.5,0.0,29.88,WSW,238,5.0,16.0,0,0.00,,,0.00,Weather View 32 v70,2013-07-28 18:13:00,
2013-07-28 11:18:00,71.7,0.0,29.88,SW,214,10.0,16.0,0,0.00,,,0.00,Weather View 32 v70,2013-07-28 18:18:00,
2013-07-28 11:23:00,71.4,0.0,29.88,SW,222,5.0,16.0,0,0.00,,,0.00,Weather View 32 v70,2013-07-28 18:23:00,
2013-07-28 11:28:00,70.8,0.0,29.88,ESE,115,4.0,16.0,0,0.00,,,0.00,Weather View 32 v70,2013-07-28 18:28:00,
2013-07-28 11:33:00,71.1,0.0,29.88,SW,229,9.0,16.0,0,0.00,,,0.00,Weather View 32 v70,2013-07-28 18:33:00,
2013-07-28 11:38:00,71.4,0.0,29.88,West,269,5.0,16.0,0,0.00,,,0.00,Weather View 32 v70,2013-07-28 18:38:00,
2013-07-28 11:43:00,72.3,0.0,29.88,SSW,201,6.0,16.0,0,0.00,,,0.00,Weather View 32 v70,2013-07-28 18:43:00,
2013-07-28 11:48:00,72.8,0.0,29.88,SSW,207,11.0,16.0,0,0.00,,,0.00,Weather View 32 v70,2013-07-28 18:48:00,
2013-07-28 11:53:00,73.1,0.0,29.87,West,277,6.0,16.0,0,0.00,,,0.00,Weather View 32 v70,2013-07-28 18:53:00,
2013-07-28 11:58:00,73.6,0.0,29.87,SW,228,10.0,16.0,0,0.00,,,0.00,Weather View 32 v70,2013-07-28 18:58:00,
2013-07-28 12:03:00,74.2,0.0,29.87,West,278,6.0,16.0,0,0.00,,,0.00,Weather View 32 v70,2013-07-28 19:03:00,
2013-07-28 12:08:00,75.4,0.0,29.87,SW,222,11.0,16.0,0,0.00,,,0.00,Weather View 32 v70,2013-07-28 19:08:00,
2013-07-28 12:13:00,75.3,0.0,29.87,SW,224,6.0,16.0,0,0.00,,,0.00,Weather View 32 v70,2013-07-28 19:13:00,
2013-07-28 12:18:00,74.9,0.0,29.87,SW,215,8.0,16.0,0,0.00,,,0.00,Weather View 32 v70,2013-07-28 19:18:00,
2013-07-28 12:23:00,75.0,0.0,29.87,SW,228,9.0,16.0,0,0.00,,,0.00,Weather View 32 v70,2013-07-28 19:23:00,
2013-07-28 12:28:00,75.5,0.0,29.86,WSW,255,7.0,16.0,0,0.00,,,0.00,Weather View 32 v70,2013-07-28 19:28:00,
2013-07-28 12:33:00,74.7,0.0,29.86,SSW,203,8.0,16.0,0,0.00,,,0.00,Weather View 32 v70,2013-07-28 19:33:00,
2013-07-28 12:38:00,74.9,0.0,29.86,WSW,250,4.0,17.0,0,0.00,,,0.00,Weather View 32 v70,2013-07-28 19:38:00,
2013-07-28 12:43:00,75.2,0.0,29.86,WSW,252,8.0,17.0,0,0.00,,,0.00,Weather View 32 v70,2013-07-28 19:43:00,
2013-07-28 12:48:00,75.9,0.0,29.86,SW,232,9.0,17.0,0,0.00,,,0.00,Weather View 32 v70,2013-07-28 19:48:00,
2013-07-28 12:53:00,76.1,0.0,29.85,SW,235,2.0,17.0,0,0.00,,,0.00,Weather View 32 v70,2013-07-28 19:53:00,
2013-07-28 12:58:00,75.8,0.0,29.85,SW,217,7.0,17.0,0,0.00,,,0.00,Weather View 32 v70,2013-07-28 19:58:00,
2013-07-28 13:03:00,76.5,0.0,29.85,SW,228,7.0,17.0,0,0.00,,,0.00,Weather View 32 v70,2013-07-28 20:03:00,
2013-07-28 13:08:00,77.4,0.0,29.85,SW,214,7.0,17.0,0,0.00,,,0.00,Weather View 32 v70,2013-07-28 20:08:00,
2013-07-28 13:13:00,78.0,0.0,29.85,West,278,8.0,17.0,0,0.00,,,0.00,Weather View 32 v70,2013-07-28 20:13:00,
2013-07-28 13:18:00,77.9,0.0,29.85,SW,235,11.0,17.0,0,0.00,,,0.00,Weather View 32 v70,2013-07-28 20:18:00,
2013-07-28 13:23:00,79.3,0.0,29.85,SSW,207,9.0,17.0,0,0.00,,,0.00,Weather View 32 v70,2013-07-28 20:23:00,
2013-07-28 13:28:00,78.8,0.0,29.84,SSW,208,6.0,17.0,0,0.00,,,0.00,Weather View 32 v70,2013-07-28 20:28:00,
2013-07-28 13:33:00,78.9,0.0,29.84,South,183,7.0,17.0,0,0.00,,,0.00,Weather View 32 v70,2013-07-28 20:33:00,
2013-07-28 13:38:00,79.3,0.0,29.84,WSW,242,8.0,17.0,0,0.00,,,0.00,Weather View 32 v70,2013-07-28 20:38:00,
2013-07-28 13:43:00,79.1,0.0,29.83,South,183,6.0,16.0,0,0.00,,,0.00,Weather View 32 v70,2013-07-28 20:43:00,
2013-07-28 13:48:00,80.4,0.0,29.83,SW,214,5.0,16.0,0,0.00,,,0.00,Weather View 32 v70,2013-07-28 20:48:00,
2013-07-28 13:53:00,80.4,0.0,29.83,West,274,3.0,16.0,0,0.00,,,0.00,Weather View 32 v70,2013-07-28 20:53:00,
2013-07-28 13:58:00,81.1,0.0,29.83,South,181,8.0,16.0,0,0.00,,,0.00,Weather View 32 v70,2013-07-28 20:58:00,
2013-07-28 14:03:00,81.8,0.0,29.83,SSE,153,2.0,16.0,0,0.00,,,0.00,Weather View 32 v70,2013-07-28 21:03:00,
2013-07-28 14:08:00,80.6,0.0,29.83,West,262,5.0,16.0,0,0.00,,,0.00,Weather View 32 v70,2013-07-28 21:08:00,
2013-07-28 14:13:00,81.1,0.0,29.82,SW,233,6.0,16.0,0,0.00,,,0.00,Weather View 32 v70,2013-07-28 21:13:00,
2013-07-28 14:18:00,81.4,0.0,29.82,West,266,7.0,16.0,0,0.00,,,0.00,Weather View 32 v70,2013-07-28 21:18:00,
2013-07-28 14:23:00,81.8,0.0,29.82,SSW,208,4.0,16.0,0,0.00,,,0.00,Weather View 32 v70,2013-07-28 21:23:00,
2013-07-28 14:28:00,81.7,0.0,29.81,SSW,203,8.0,16.0,0,0.00,,,0.00,Weather View 32 v70,2013-07-28 21:28:00,
2013-07-28 14:33:00,82.3,0.0,29.81,WSW,243,3.0,16.0,0,0.00,,,0.00,Weather View 32 v70,2013-07-28 21:33:00,
2013-07-28 14:38:00,81.8,0.0,29.81,SW,221,7.0,16.0,0,0.00,,,0.00,Weather View 32 v70,2013-07-28 21:38:00,
2013-07-28 14:43:00,82.9,0.0,29.81,SW,236,2.0,16.0,0,0.00,,,0.00,Weather View 32 v70,2013-07-28 21:43:00,
2013-07-28 14:48:00,84.1,0.0,29.80,West,260,5.0,16.0,0,0.00,,,0.00,Weather View 32 v70,2013-07-28 21:48:00,
2013-07-28 14:53:00,83.0,0.0,29.80,SW,218,7.0,16.0,0,0.00,,,0.00,Weather View 32 v70,2013-07-28 21:53:00,
2013-07-28 14:58:00,83.4,0.0,29.80,SSW,204,11.0,16.0,0,0.00,,,0.00,Weather View 32 v70,2013-07-28 21:58:00,
2013-07-28 15:03:00,82.8,0.0,29.80,SW,217,13.0,16.0,0,0.00,,,0.00,Weather View 32 v70,2013-07-28 22:03:00,
2013-07-28 15:08:00,82.8,0.0,29.80,SSW,208,9.0,15.0,0,0.00,,,0.00,Weather View 32 v70,2013-07-28 22:08:00,
2013-07-28 15:13:00,82.2,0.0,29.80,SW,215,11.0,18.0,0,0.00,,,0.00,Weather View 32 v70,2013-07-28 22:13:00,
2013-07-28 15:18:00,82.3,0.0,29.79,WSW,245,7.0,18.0,0,0.00,,,0.00,Weather View 32 v70,2013-07-28 22:18:00,
2013-07-28 15:23:00,81.3,0.0,29.79,SW,235,6.0,18.0,0,0.00,,,0.00,Weather View 32 v70,2013-07-28 22:23:00,
2013-07-28 15:28:00,81.4,0.0,29.79,SSW,211,6.0,18.0,0,0.00,,,0.00,Weather View 32 v70,2013-07-28 22:28:00,
2013-07-28 15:33:00,82.1,0.0,29.79,WSW,250,8.0,19.0,0,0.00,,,0.00,Weather View 32 v70,2013-07-28 22:33:00,
2013-07-28 15:38:00,82.2,0.0,29.79,SW,236,6.0,19.0,0,0.00,,,0.00,Weather View 32 v70,2013-07-28 22:38:00,
2013-07-28 15:43:00,81.9,0.0,29.78,West,271,4.0,19.0,0,0.00,,,0.00,Weather View 32 v70,2013-07-28 22:43:00,
2013-07-28 15:48:00,81.3,0.0,29.78,SSW,203,6.0,19.0,0,0.00,,,0.00,Weather View 32 v70,2013-07-28 22:48:00,
2013-07-28 15:53:00,81.3,0.0,29.78,SSW,197,7.0,19.0,0,0.00,,,0.00,Weather View 32 v70,2013-07-28 22:53:00,
2013-07-28 15:58:00,81.3,0.0,29.78,SW,229,9.0,19.0,0,0.00,,,0.00,Weather View 32 v70,2013-07-28 22:58:00,
2013-07-28 16:03:00,80.7,0.0,29.78,South,173,1.0,20.0,0,0.00,,,0.00,Weather View 32 v70,2013-07-28 23:03:00,
2013-07-28 16:08:00,80.4,0.0,29.78,SSW,208,10.0,20.0,0,0.00,,,0.00,Weather View 32 v70,2013-07-28 23:08:00,
2013-07-28 16:13:00,80.2,0.0,29.78,WSW,238,6.0,20.0,0,0.00,,,0.00,Weather View 32 v70,2013-07-28 23:13:00,
2013-07-28 16:18:00,80.0,0.0,29.78,WNW,297,5.0,20.0,0,0.00,,,0.00,Weather View 32 v70,2013-07-28 23:18:00,
2013-07-28 16:23:00,79.0,0.0,29.78,SW,214,6.0,20.0,0,0.00,,,0.00,Weather View 32 v70,2013-07-28 23:23:00,
2013-07-28 16:28:00,79.2,0.0,29.78,WSW,245,6.0,20.0,0,0.00,,,0.00,Weather View 32 v70,2013-07-28 23:28:00,
2013-07-28 16:33:00,78.3,0.0,29.78,SW,217,5.0,20.0,0,0.00,,,0.00,Weather View 32 v70,2013-07-28 23:33:00,
2013-07-28 16:38:00,79.1,0.0,29.78,WSW,242,5.0,21.0,0,0.00,,,0.00,Weather View 32 v70,2013-07-28 23:38:00,
2013-07-28 16:43:00,79.4,0.0,29.77,SW,219,12.0,21.0,0,0.00,,,0.00,Weather View 32 v70,2013-07-28 23:43:00,
2013-07-28 16:48:00,78.8,0.0,29.78,SW,229,8.0,22.0,0,0.00,,,0.00,Weather View 32 v70,2013-07-28 23:48:00,
2013-07-28 16:53:00,78.7,0.0,29.78,SSW,204,8.0,22.0,0,0.00,,,0.00,Weather View 32 v70,2013-07-28 23:53:00,
2013-07-28 16:58:00,78.3,0.0,29.78,SW,215,5.0,22.0,0,0.00,,,0.00,Weather View 32 v70,2013-07-28 23:58:00,
2013-07-28 17:03:00,78.2,0.0,29.78,WSW,246,4.0,22.0,0,0.00,,,0.00,Weather View 32 v70,2013-07-29 00:03:00,
2013-07-28 17:08:00,77.7,0.0,29.77,SSW,208,10.0,22.0,0,0.00,,,0.00,Weather View 32 v70,2013-07-29 00:08:00,
2013-07-28 17:13:00,77.2,0.0,29.78,West,267,14.0,22.0,0,0.00,,,0.00,Weather View 32 v70,2013-07-29 00:13:00,
2013-07-28 17:18:00,77.3,0.0,29.78,WSW,238,9.0,22.0,0,0.00,,,0.00,Weather View 32 v70,2013-07-29 00:18:00,
2013-07-28 17:23:00,77.1,0.0,29.77,South,179,12.0,22.0,0,0.00,,,0.00,Weather View 32 v70,2013-07-29 00:23:00,
2013-07-28 17:28:00,77.3,0.0,29.78,SSW,208,7.0,22.0,0,0.00,,,0.00,Weather View 32 v70,2013-07-29 00:28:00,
2013-07-28 17:33:00,76.8,0.0,29.77,WSW,240,8.0,22.0,0,0.00,,,0.00,Weather View 32 v70,2013-07-29 00:33:00,
2013-07-28 17:38:00,76.3,0.0,29.78,West,267,8.0,22.0,0,0.00,,,0.00,Weather View 32 v70,2013-07-29 00:38:00,
2013-07-28 17:43:00,75.3,0.0,29.78,WSW,248,6.0,22.0,0,0.00,,,0.00,Weather View 32 v70,2013-07-29 00:43:00,
2013-07-28 17:48:00,75.7,0.0,29.78,WSW,245,17.0,20.0,0,0.00,,,0.00,Weather View 32 v70,2013-07-29 00:48:00,
2013-07-28 17:53:00,75.0,0.0,29.78,SW,219,12.0,22.0,0,0.00,,,0.00,Weather View 32 v70,2013-07-29 00:53:00,
2013-07-28 17:58:00,75.8,0.0,29.78,NW,307,8.0,22.0,0,0.00,,,0.00,Weather View 32 v70,2013-07-29 00:58:00,
2013-07-28 18:03:00,75.2,0.0,29.79,SSW,193,12.0,22.0,0,0.00,,,0.00,Weather View 32 v70,2013-07-29 01:03:00,
2013-07-28 18:08:00,73.8,0.0,29.78,SW,228,18.0,22.0,0,0.00,,,0.00,Weather View 32 v70,2013-07-29 01:08:00,
2013-07-28 18:14:00,74.1,0.0,29.78,WSW,238,11.0,22.0,0,0.00,,,0.00,Weather View 32 v70,2013-07-29 01:14:00,
2013-07-28 18:19:00,73.7,0.0,29.78,WSW,238,3.0,22.0,0,0.00,,,0.00,Weather View 32 v70,2013-07-29 01:19:00,
2013-07-28 18:24:00,72.3,0.0,29.78,SW,229,8.0,22.0,0,0.00,,,0.00,Weather View 32 v70,2013-07-29 01:24:00,
2013-07-28 18:29:00,71.5,0.0,29.78,SW,235,12.0,22.0,0,0.00,,,0.00,Weather View 32 v70,2013-07-29 01:29:00,
2013-07-28 18:34:00,71.8,0.0,29.78,West,273,10.0,22.0,0,0.00,,,0.00,Weather View 32 v70,2013-07-29 01:34:00,
2013-07-28 18:39:00,71.5,0.0,29.78,SW,226,8.0,22.0,0,0.00,,,0.00,Weather View 32 v70,2013-07-29 01:39:00,
2013-07-28 18:44:00,71.2,0.0,29.78,SW,218,18.0,22.0,0,0.00,,,0.00,Weather View 32 v70,2013-07-29 01:44:00,
2013-07-28 18:49:00,70.2,0.0,29.79,WSW,252,5.0,22.0,0,0.00,,,0.00,Weather View 32 v70,2013-07-29 01:49:00,
2013-07-28 18:54:00,70.2,0.0,29.79,West,262,6.0,21.0,0,0.00,,,0.00,Weather View 32 v70,2013-07-29 01:54:00,
2013-07-28 18:59:00,70.1,0.0,29.78,WSW,250,6.0,21.0,0,0.00,,,0.00,Weather View 32 v70,2013-07-29 01:59:00,
2013-07-28 19:04:00,69.8,0.0,29.79,West,262,9.0,21.0,0,0.00,,,0.00,Weather View 32 v70,2013-07-29 02:04:00,
2013-07-28 19:09:00,68.9,0.0,29.79,SSW,205,6.0,21.0,0,0.00,,,0.00,Weather View 32 v70,2013-07-29 02:09:00,
2013-07-28 19:14:00,69.0,0.0,29.79,SW,235,8.0,21.0,0,0.00,,,0.00,Weather View 32 v70,2013-07-29 02:14:00,
2013-07-28 19:19:00,68.0,0.0,29.80,West,276,5.0,21.0,0,0.00,,,0.00,Weather View 32 v70,2013-07-29 02:19:00,
2013-07-28 19:25:00,67.7,0.0,29.80,SW,235,8.0,21.0,0,0.00,,,0.00,Weather View 32 v70,2013-07-29 02:25:00,
2013-07-28 19:30:00,67.0,0.0,29.79,WSW,239,8.0,18.0,0,0.00,,,0.00,Weather View 32 v70,2013-07-29 02:30:00,
2013-07-28 19:35:00,66.4,0.0,29.79,SW,225,7.0,18.0,0,0.00,,,0.00,Weather View 32 v70,2013-07-29 02:35:00,
2013-07-28 19:40:00,66.4,0.0,29.80,SW,218,12.0,18.0,0,0.00,,,0.00,Weather View 32 v70,2013-07-29 02:40:00,
2013-07-28 19:45:00,66.1,0.0,29.80,WNW,291,7.0,20.0,0,0.00,,,0.00,Weather View 32 v70,2013-07-29 02:45:00,
2013-07-28 19:50:00,66.0,0.0,29.80,SSW,207,9.0,20.0,0,0.00,,,0.00,Weather View 32 v70,2013-07-29 02:50:00,
2013-07-28 19:55:00,65.7,0.0,29.80,SW,225,7.0,20.0,0,0.00,,,0.00,Weather View 32 v70,2013-07-29 02:55:00,
2013-07-28 20:00:00,65.3,0.0,29.80,SSW,197,9.0,20.0,0,0.00,,,0.00,Weather View 32 v70,2013-07-29 03:00:00,
2013-07-28 20:06:00,64.7,0.0,29.80,WSW,246,4.0,20.0,0,0.00,,,0.00,Weather View 32 v70,2013-07-29 03:06:00,
2013-07-28 20:12:00,64.5,0.0,29.80,SW,214,6.0,20.0,0,0.00,,,0.00,Weather View 32 v70,2013-07-29 03:12:00,
2013-07-28 20:17:00,63.4,0.0,29.80,West,260,9.0,20.0,0,0.00,,,0.00,Weather View 32 v70,2013-07-29 03:17:00,
2013-07-28 20:22:00,63.7,0.0,29.81,WSW,255,6.0,20.0,0,0.00,,,0.00,Weather View 32 v70,2013-07-29 03:22:00,
2013-07-28 20:27:00,63.2,0.0,29.81,SW,225,7.0,20.0,0,0.00,,,0.00,Weather View 32 v70,2013-07-29 03:27:00,
2013-07-28 20:32:00,62.8,0.0,29.81,WSW,252,7.0,20.0,0,0.00,,,0.00,Weather View 32 v70,2013-07-29 03:32:00,
2013-07-28 20:37:00,62.4,0.0,29.81,SW,233,7.0,20.0,0,0.00,,,0.00,Weather View 32 v70,2013-07-29 03:37:00,
2013-07-28 20:43:00,62.2,0.0,29.81,SSW,198,3.0,20.0,0,0.00,,,0.00,Weather View 32 v70,2013-07-29 03:43:00,
2013-07-28 20:48:00,62.1,0.0,29.82,SW,229,2.0,20.0,0,0.00,,,0.00,Weather View 32 v70,2013-07-29 03:48:00,
2013-07-28 20:53:00,62.4,0.0,29.82,SW,236,8.0,20.0,0,0.00,,,0.00,Weather View 32 v70,2013-07-29 03:53:00,
2013-07-28 20:58:00,62.0,0.0,29.82,WSW,242,8.0,20.0,0,0.00,,,0.00,Weather View 32 v70,2013-07-29 03:58:00,
2013-07-28 21:01:00,61.9,0.0,29.82,WSW,252,7.0,20.0,0,0.00,,,0.00,Weather View 32 v70,2013-07-29 04:01:00,
2013-07-28 21:02:00,62.0,0.0,29.82,SW,225,7.0,20.0,0,0.00,,,0.00,Weather View 32 v70,2013-07-29 04:02:00,
2013-07-28 21:06:00,61.8,0.0,29.82,SW,233,3.0,20.0,0,0.00,,,0.00,Weather View 32 v70,2013-07-29 04:06:00,
2013-07-28 21:11:00,61.6,0.0,29.82,WSW,250,4.0,20.0,0,0.00,,,0.00,Weather View 32 v70,2013-07-29 04:11:00,
2013-07-28 21:16:00,61.5,0.0,29.82,SW,232,6.0,20.0,0,0.00,,,0.00,Weather View 32 v70,2013-07-29 04:16:00,
2013-07-28 21:21:00,61.1,0.0,29.82,SSW,203,10.0,19.0,0,0.00,,,0.00,Weather View 32 v70,2013-07-29 04:21:00,
2013-07-28 21:27:00,61.0,0.0,29.83,SW,228,4.0,18.0,0,0.00,,,0.00,Weather View 32 v70,2013-07-29 04:27:00,
2013-07-28 21:32:00,61.0,0.0,29.83,West,274,2.0,18.0,0,0.00,,,0.00,Weather View 32 v70,2013-07-29 04:32:00,
2013-07-28 21:37:00,60.5,0.0,29.83,SSW,203,6.0,18.0,0,0.00,,,0.00,Weather View 32 v70,2013-07-29 04:37:00,
2013-07-28 21:42:00,60.2,0.0,29.84,SW,231,7.0,17.0,0,0.00,,,0.00,Weather View 32 v70,2013-07-29 04:42:00,
2013-07-28 21:47:00,60.6,0.0,29.84,WSW,243,7.0,17.0,0,0.00,,,0.00,Weather View 32 v70,2013-07-29 04:47:00,
2013-07-28 21:52:00,60.4,0.0,29.84,WSW,256,8.0,17.0,0,0.00,,,0.00,Weather View 32 v70,2013-07-29 04:52:00,
2013-07-28 21:57:00,60.6,0.0,29.84,West,270,8.0,19.0,0,0.00,,,0.00,Weather View 32 v70,2013-07-29 04:57:00,
2013-07-28 22:02:00,60.7,0.0,29.84,WSW,250,4.0,19.0,0,0.00,,,0.00,Weather View 32 v70,2013-07-29 05:02:00,
2013-07-28 22:07:00,60.5,0.0,29.84,WNW,284,5.0,19.0,0,0.00,,,0.00,Weather View 32 v70,2013-07-29 05:07:00,
2013-07-28 22:12:00,60.6,0.0,29.84,SW,236,9.0,19.0,0,0.00,,,0.00,Weather View 32 v70,2013-07-29 05:12:00,
2013-07-28 22:17:00,60.4,0.0,29.84,West,274,8.0,19.0,0,0.00,,,0.00,Weather View 32 v70,2013-07-29 05:17:00,
2013-07-28 22:22:00,60.2,0.0,29.84,WSW,246,7.0,19.0,0,0.00,,,0.00,Weather View 32 v70,2013-07-29 05:22:00,
2013-07-28 22:27:00,60.3,0.0,29.84,SW,222,5.0,19.0,0,0.00,,,0.00,Weather View 32 v70,2013-07-29 05:27:00,
2013-07-28 22:32:00,60.3,0.0,29.84,SW,222,7.0,19.0,0,0.00,,,0.00,Weather View 32 v70,2013-07-29 05:32:00,
2013-07-28 22:37:00,60.0,0.0,29.84,SW,221,4.0,19.0,0,0.00,,,0.00,Weather View 32 v70,2013-07-29 05:37:00,
2013-07-28 22:42:00,59.9,0.0,29.84,West,264,9.0,19.0,0,0.00,,,0.00,Weather View 32 v70,2013-07-29 05:42:00,
2013-07-28 22:47:00,60.2,0.0,29.84,West,259,6.0,19.0,0,0.00,,,0.00,Weather View 32 v70,2013-07-29 05:47:00,
2013-07-28 22:52:00,60.5,0.0,29.84,West,266,6.0,19.0,0,0.00,,,0.00,Weather View 32 v70,2013-07-29 05:52:00,
2013-07-28 22:57:00,60.1,0.0,29.84,WSW,239,11.0,18.0,0,0.00,,,0.00,Weather View 32 v70,2013-07-29 05:57:00,
2013-07-28 23:02:00,60.1,0.0,29.84,WSW,245,5.0,17.0,0,0.00,,,0.00,Weather View 32 v70,2013-07-29 06:02:00,
2013-07-28 23:07:00,60.4,0.0,29.84,South,179,5.0,17.0,0,0.00,,,0.00,Weather View 32 v70,2013-07-29 06:07:00,
2013-07-28 23:12:00,59.9,0.0,29.84,WSW,256,7.0,17.0,0,0.00,,,0.00,Weather View 32 v70,2013-07-29 06:12:00,
2013-07-28 23:17:00,60.0,0.0,29.85,SSW,201,6.0,17.0,0,0.00,,,0.00,Weather View 32 v70,2013-07-29 06:17:00,
2013-07-28 23:22:00,59.7,0.0,29.84,WSW,239,5.0,17.0,0,0.00,,,0.00,Weather View 32 v70,2013-07-29 06:22:00,
2013-07-28 23:27:00,59.7,0.0,29.84,WSW,239,7.0,17.0,0,0.00,,,0.00,Weather View 32 v70,2013-07-29 06:27:00,
2013-07-28 23:32:00,59.7,0.0,29.84,SW,215,7.0,17.0,0,0.00,,,0.00,Weather View 32 v70,2013-07-29 06:32:00,
2013-07-28 23:37:00,59.4,0.0,29.84,WSW,246,9.0,17.0,0,0.00,,,0.00,Weather View 32 v70,2013-07-29 06:37:00,
2013-07-28 23:42:00,59.8,0.0,29.84,SSW,205,7.0,17.0,0,0.00,,,0.00,Weather View 32 v70,2013-07-29 06:42:00,
2013-07-28 23:47:00,59.4,0.0,29.84,WSW,257,8.0,17.0,0,0.00,,,0.00,Weather View 32 v70,2013-07-29 06:47:00,
2013-07-28 23:52:00,59.2,0.0,29.84,West,269,7.0,17.0,0,0.00,,,0.00,Weather View 32 v70,2013-07-29 06:52:00,
2013-07-28 23:57:00,59.5,0.0,29.84,SSW,205,6.0,17.0,0,0.00,,,0.00,Weather View 32 v70,2013-07-29 06:57:00,